• In Belarus
  • List of Countries
  • For 7 days
  • Water Temperature
  • Satellite Maps
  • Weather Map
  • Weather Widgets
  • user-avatar
    Login

    Hourly Weather Konstantyna

    Today, 23 July, Sunday

    Time Temperature Precipitation Wind Pressure Humidity
    00:00 +35°C° 0.1 mm 4 mps 713 mmHg 28%
    01:00 +34°C° 0 mm 4 mps 713 mmHg 29%
    02:00 +34°C° 0 mm 3 mps 713 mmHg 30%
    03:00 +33°C° 0 mm 3 mps 713 mmHg 31%
    04:00 +34°C° 0 mm 3 mps 713 mmHg 30%
    05:00 +34°C° 0 mm 3 mps 713 mmHg 29%
    06:00 +34°C° 0 mm 3 mps 713 mmHg 29%
    07:00 +36°C° 0 mm 4 mps 713 mmHg 25%
    08:00 +38°C° 0 mm 4 mps 714 mmHg 21%
    09:00 +42°C° 0 mm 5 mps 714 mmHg 18%
    10:00 +42°C° 0 mm 5 mps 714 mmHg 17%
    11:00 +43°C° 0 mm 4 mps 714 mmHg 17%
    12:00 +45°C° 0 mm 6 mps 714 mmHg 16%
    13:00 +45°C° 0 mm 5 mps 714 mmHg 17%
    14:00 +45°C° 0 mm 5 mps 714 mmHg 17%
    15:00 +43°C° 0 mm 5 mps 713 mmHg 18%
    16:00 +42°C° 0 mm 4 mps 713 mmHg 20%
    17:00 +40°C° 0 mm 3 mps 713 mmHg 22%
    18:00 +39°C° 0 mm 3 mps 713 mmHg 24%
    19:00 +38°C° 0.2 mm 3 mps 713 mmHg 26%
    20:00 +37°C° 0.2 mm 2 mps 713 mmHg 28%
    21:00 +36°C° 0.2 mm 2 mps 713 mmHg 30%
    22:00 +36°C° 0.1 mm 2 mps 713 mmHg 30%
    23:00 +35°C° 0.1 mm 3 mps 713 mmHg 31%

    Tomorrow, 24 July, Monday

    Time Temperature Precipitation Wind Pressure Humidity
    00:00 +35°C° 0.1 mm 3 mps 713 mmHg 32%
    01:00 +34°C° 0 mm 3 mps 712 mmHg 33%
    02:00 +34°C° 0 mm 2 mps 712 mmHg 34%
    03:00 +32°C° 0 mm 2 mps 712 mmHg 35%
    04:00 +33°C° 0 mm 3 mps 712 mmHg 37%
    05:00 +31°C° 0 mm 3 mps 711 mmHg 39%
    06:00 +32°C° 0 mm 4 mps 711 mmHg 41%
    07:00 +33°C° 0 mm 4 mps 712 mmHg 38%
    08:00 +35°C° 0 mm 4 mps 712 mmHg 35%
    09:00 +36°C° 0 mm 5 mps 712 mmHg 33%
    10:00 +37°C° 0 mm 5 mps 712 mmHg 33%
    11:00 +37°C° 0 mm 5 mps 712 mmHg 33%
    12:00 +39°C° 0 mm 6 mps 711 mmHg 33%
    13:00 +37°C° 0 mm 5 mps 711 mmHg 36%
    14:00 +36°C° 0 mm 5 mps 710 mmHg 38%
    15:00 +35°C° 0 mm 5 mps 710 mmHg 41%
    16:00 +34°C° 0 mm 5 mps 710 mmHg 47%
    17:00 +32°C° 0 mm 4 mps 710 mmHg 52%
    18:00 +29°C° 0 mm 4 mps 710 mmHg 58%
    19:00 +28°C° 0.2 mm 4 mps 710 mmHg 63%
    20:00 +27°C° 0.2 mm 3 mps 711 mmHg 68%
    21:00 +26°C° 0.2 mm 2 mps 711 mmHg 73%
    22:00 +25°C° 0 mm 2 mps 711 mmHg 76%
    23:00 +24°C° 0 mm 2 mps 710 mmHg 78%

    Day after tomorrow, 25 July, Tuesday

    Time Temperature Precipitation Wind Pressure Humidity
    00:00 +24°C° 0 mm 2 mps 710 mmHg 81%
    01:00 +23°C° 0 mm 1 mps 710 mmHg 82%
    02:00 +23°C° 0 mm 1 mps 710 mmHg 83%
    03:00 +23°C° 0 mm 1 mps 709 mmHg 84%
    04:00 +23°C° 0 mm 1 mps 709 mmHg 83%
    05:00 +22°C° 0 mm 1 mps 709 mmHg 81%
    06:00 +22°C° 0 mm 1 mps 710 mmHg 80%
    07:00 +24°C° 0 mm 1 mps 710 mmHg 70%
    08:00 +26°C° 0 mm 1 mps 710 mmHg 60%
    09:00 +27°C° 0 mm 1 mps 710 mmHg 51%
    10:00 +29°C° 0 mm 2 mps 710 mmHg 46%
    11:00 +30°C° 0 mm 3 mps 710 mmHg 41%
    12:00 +33°C° 0 mm 3 mps 710 mmHg 36%
    13:00 +33°C° 0 mm 4 mps 709 mmHg 36%
    14:00 +33°C° 0 mm 4 mps 709 mmHg 36%
    15:00 +33°C° 0 mm 4 mps 709 mmHg 36%
    16:00 +32°C° 0 mm 4 mps 709 mmHg 42%
    17:00 +29°C° 0 mm 4 mps 709 mmHg 49%
    18:00 +28°C° 0 mm 4 mps 708 mmHg 55%
    19:00 +27°C° 0 mm 4 mps 709 mmHg 61%
    20:00 +25°C° 0 mm 3 mps 709 mmHg 67%
    21:00 +24°C° 0 mm 2 mps 709 mmHg 73%
    22:00 +24°C° 0 mm 2 mps 709 mmHg 75%
    23:00 +23°C° 0 mm 1 mps 709 mmHg 77%

    26 July, Wednesday

    Time Temperature Precipitation Wind Pressure Humidity
    00:00 +23°C° 0 mm 1 mps 709 mmHg 79%
    01:00 +23°C° 0 mm 1 mps 708 mmHg 80%
    02:00 +22°C° 0 mm 1 mps 708 mmHg 82%
    03:00 +22°C° 0 mm 1 mps 708 mmHg 83%
    04:00 +22°C° 0 mm 1 mps 708 mmHg 82%
    05:00 +22°C° 0 mm 1 mps 708 mmHg 81%
    06:00 +22°C° 0 mm 1 mps 708 mmHg 80%
    07:00 +23°C° 0 mm 1 mps 709 mmHg 70%
    08:00 +25°C° 0 mm 1 mps 709 mmHg 61%
    09:00 +26°C° 0 mm 1 mps 710 mmHg 52%
    10:00 +28°C° 0 mm 2 mps 710 mmHg 45%
    11:00 +29°C° 0 mm 3 mps 710 mmHg 39%
    12:00 +32°C° 0 mm 4 mps 710 mmHg 33%
    13:00 +32°C° 0 mm 4 mps 709 mmHg 32%
    14:00 +32°C° 0 mm 5 mps 709 mmHg 32%
    15:00 +32°C° 0 mm 5 mps 709 mmHg 31%
    16:00 +30°C° 0 mm 5 mps 709 mmHg 36%
    17:00 +29°C° 0 mm 4 mps 709 mmHg 40%
    18:00 +28°C° 0 mm 4 mps 709 mmHg 45%
    19:00 +26°C° 0 mm 3 mps 709 mmHg 51%
    20:00 +25°C° 0 mm 2 mps 709 mmHg 57%
    21:00 +24°C° 0 mm 2 mps 709 mmHg 63%
    22:00 +23°C° 0 mm 1 mps 709 mmHg 66%
    23:00 +23°C° 0 mm 1 mps 709 mmHg 68%

    27 July, Thursday

    Time Temperature Precipitation Wind Pressure Humidity
    00:00 +22°C° 0 mm 1 mps 709 mmHg 70%
    01:00 +22°C° 0 mm 1 mps 709 mmHg 71%
    02:00 +22°C° 0 mm 1 mps 709 mmHg 71%
    03:00 +22°C° 0 mm 1 mps 708 mmHg 71%
    04:00 +22°C° 0 mm 1 mps 709 mmHg 67%
    05:00 +22°C° 0 mm 1 mps 709 mmHg 63%
    06:00 +21°C° 0 mm 0 mps 710 mmHg 59%
    07:00 +24°C° 0 mm 1 mps 710 mmHg 50%
    08:00 +26°C° 0 mm 1 mps 711 mmHg 42%
    09:00 +28°C° 0 mm 1 mps 711 mmHg 33%
    10:00 +29°C° 0 mm 2 mps 711 mmHg 29%
    11:00 +30°C° 0 mm 2 mps 711 mmHg 26%
    12:00 +33°C° 0 mm 3 mps 711 mmHg 22%
    13:00 +33°C° 0 mm 3 mps 711 mmHg 23%
    14:00 +33°C° 0 mm 3 mps 711 mmHg 23%
    15:00 +33°C° 0 mm 4 mps 711 mmHg 24%
    16:00 +32°C° 0 mm 4 mps 711 mmHg 27%
    17:00 +30°C° 0 mm 3 mps 711 mmHg 30%
    18:00 +30°C° 0 mm 3 mps 711 mmHg 34%
    19:00 +28°C° 0 mm 3 mps 711 mmHg 37%
    20:00 +27°C° 0 mm 2 mps 711 mmHg 41%
    21:00 +26°C° 0 mm 2 mps 712 mmHg 45%
    22:00 +26°C° 0 mm 1 mps 711 mmHg 45%
    23:00 +25°C° 0 mm 1 mps 711 mmHg 46%

    28 July, Friday

    Time Temperature Precipitation Wind Pressure Humidity
    00:00 +25°C° 0 mm 1 mps 711 mmHg 46%
    01:00 +25°C° 0 mm 1 mps 711 mmHg 46%
    02:00 +24°C° 0 mm 1 mps 711 mmHg 46%
    03:00 +24°C° 0 mm 1 mps 710 mmHg 46%
    04:00 +25°C° 0 mm 1 mps 711 mmHg 44%
    05:00 +25°C° 0 mm 1 mps 711 mmHg 42%
    06:00 +26°C° 0 mm 1 mps 712 mmHg 39%
    07:00 +28°C° 0 mm 1 mps 712 mmHg 35%
    08:00 +29°C° 0 mm 1 mps 713 mmHg 30%
    09:00 +31°C° 0 mm 1 mps 713 mmHg 26%
    10:00 +32°C° 0 mm 1 mps 713 mmHg 24%
    11:00 +34°C° 0 mm 2 mps 713 mmHg 23%
    12:00 +36°C° 0 mm 3 mps 713 mmHg 21%
    13:00 +36°C° 0 mm 3 mps 713 mmHg 21%
    14:00 +36°C° 0 mm 3 mps 713 mmHg 22%
    15:00 +36°C° 0 mm 4 mps 713 mmHg 23%
    16:00 +35°C° 0 mm 4 mps 713 mmHg 26%
    17:00 +34°C° 0 mm 4 mps 713 mmHg 29%
    18:00 +33°C° 0 mm 4 mps 713 mmHg 33%
    19:00 +31°C° 0 mm 3 mps 713 mmHg 37%
    20:00 +29°C° 0 mm 2 mps 713 mmHg 41%
    21:00 +28°C° 0 mm 2 mps 713 mmHg 46%
    22:00 +28°C° 0 mm 1 mps 713 mmHg 47%
    23:00 +27°C° 0 mm 1 mps 713 mmHg 47%
    Show more